SIA895 VHHH-WSSS

Flight info

Callsign SIA895
Flight time N/A
Altitude 40000
Route PECAN V12 EPDOS L642 EPKAL/K0900F400 L642 ESPOB/N0485F400 Q801 ESBUM/N0484F410 Q802 ELALO ELALO1A
Aircraft A359/H-SDE2E3GHIJ3J4J5LM1ORWXY/LB1D1

Departure

Time 2026-04-30 11:34
Airport Hong Kong International Airport (VHHH)

Arrival

Time N/A
Airport Singapore Changi Airport (WSSS)
Time Latitude Longitude Altitude Speed Heading
2026-04-30 11:03 22.31277 113.92905 43 ft 0 kts 340°
2026-04-30 11:24 22.31255 113.92914 41 ft 4 kts 335°
2026-04-30 11:24 22.31231 113.92926 40 ft 4 kts 341°
2026-04-30 11:24 22.31210 113.92931 41 ft 3 kts 15°
2026-04-30 11:25 22.31180 113.92904 42 ft 4 kts 75°
2026-04-30 11:25 22.31175 113.92886 41 ft 1 kts 71°
2026-04-30 11:27 22.31182 113.92906 42 ft 5 kts 71°
2026-04-30 11:27 22.31197 113.92952 43 ft 8 kts 71°
2026-04-30 11:27 22.31217 113.93018 43 ft 10 kts 75°
2026-04-30 11:28 22.31102 113.93112 43 ft 14 kts 160°
2026-04-30 11:28 22.31005 113.93137 43 ft 15 kts 193°
2026-04-30 11:28 22.30949 113.93048 43 ft 16 kts 252°
2026-04-30 11:29 22.30911 113.92928 43 ft 18 kts 250°
2026-04-30 11:29 22.30868 113.92794 43 ft 20 kts 251°
2026-04-30 11:29 22.30769 113.92488 43 ft 23 kts 251°
2026-04-30 11:30 22.30929 113.92279 43 ft 23 kts 341°
2026-04-30 11:30 22.31085 113.92221 43 ft 24 kts 340°
2026-04-30 11:30 22.31248 113.92159 43 ft 25 kts 341°
2026-04-30 11:31 22.31418 113.92095 43 ft 26 kts 341°
2026-04-30 11:31 22.31580 113.92035 43 ft 20 kts 346°
2026-04-30 11:31 22.31663 113.92124 43 ft 19 kts 72°
2026-04-30 11:31 22.31708 113.92266 43 ft 21 kts 71°
2026-04-30 11:32 22.31758 113.92420 43 ft 23 kts 71°
2026-04-30 11:32 22.31812 113.92586 43 ft 24 kts 71°
2026-04-30 11:32 22.31869 113.92764 43 ft 26 kts 71°
2026-04-30 11:33 22.32015 113.92939 43 ft 11 kts 294°
2026-04-30 11:33 22.32040 113.92874 42 ft 8 kts 286°
2026-04-30 11:33 22.32057 113.92807 42 ft 9 kts 280°
2026-04-30 11:33 22.32036 113.92715 42 ft 21 kts 251°
2026-04-30 11:34 22.31909 113.92320 44 ft 92 kts 250°
2026-04-30 11:34 22.31624 113.91436 45 ft 155 kts 250°
2026-04-30 11:34 22.31218 113.90211 454 ft 176 kts 253°
2026-04-30 11:34 22.30817 113.88997 1285 ft 179 kts 253°
2026-04-30 11:35 22.30389 113.87652 1830 ft 199 kts 253°
2026-04-30 11:35 22.29886 113.86175 1991 ft 226 kts 251°
2026-04-30 11:35 22.29322 113.84511 2377 ft 242 kts 252°
2026-04-30 11:35 22.28770 113.82779 3019 ft 245 kts 253°
2026-04-30 11:36 22.28221 113.81035 3739 ft 244 kts 253°
2026-04-30 11:36 22.27680 113.79312 4516 ft 240 kts 253°
2026-04-30 11:36 22.27153 113.77612 5216 ft 239 kts 253°
2026-04-30 11:36 22.26619 113.75905 5851 ft 240 kts 252°
2026-04-30 11:37 22.25983 113.74230 6457 ft 243 kts 241°
2026-04-30 11:37 22.24846 113.72869 7009 ft 248 kts 219°
2026-04-30 11:37 22.23419 113.71861 7599 ft 250 kts 212°
2026-04-30 11:37 22.21757 113.71240 8165 ft 258 kts 191°
2026-04-30 11:38 22.19953 113.71439 8731 ft 267 kts 167°
2026-04-30 11:38 22.18208 113.72167 9335 ft 270 kts 161°
2026-04-30 11:38 22.16477 113.72992 9901 ft 274 kts 160°
2026-04-30 11:38 22.14722 113.73834 10401 ft 277 kts 160°
2026-04-30 11:39 22.12958 113.74699 10921 ft 281 kts 157°
2026-04-30 11:39 22.11292 113.75872 11318 ft 294 kts 147°
2026-04-30 11:39 22.09653 113.77286 11547 ft 309 kts 144°
2026-04-30 11:39 22.07970 113.78823 11768 ft 325 kts 141°
2026-04-30 11:40 22.06570 113.80772 11938 ft 345 kts 118°
2026-04-30 11:40 22.05819 113.83295 12144 ft 360 kts 104°
2026-04-30 11:40 22.05303 113.85984 12353 ft 373 kts 102°
2026-04-30 11:40 22.04799 113.88765 12550 ft 383 kts 102°
2026-04-30 11:41 22.04172 113.91591 12783 ft 391 kts 110°
2026-04-30 11:41 22.02899 113.94165 13113 ft 390 kts 130°
2026-04-30 11:41 22.01006 113.96252 13522 ft 389 kts 141°
2026-04-30 11:41 21.98959 113.98170 13910 ft 391 kts 142°
2026-04-30 11:42 21.96874 114.00077 14247 ft 394 kts 142°
2026-04-30 11:42 21.94760 114.01961 14587 ft 395 kts 146°
2026-04-30 11:42 21.92377 114.03400 14922 ft 391 kts 163°
2026-04-30 11:42 21.89761 114.04128 15297 ft 388 kts 173°
2026-04-30 11:43 21.87107 114.04634 15659 ft 389 kts 174°
2026-04-30 11:43 21.84424 114.05114 16024 ft 391 kts 174°
2026-04-30 11:43 21.81734 114.05603 16376 ft 393 kts 174°
2026-04-30 11:43 21.79062 114.06098 16747 ft 395 kts 174°
2026-04-30 11:44 21.76345 114.06608 17107 ft 397 kts 174°
2026-04-30 11:44 21.73612 114.07123 17474 ft 399 kts 174°
2026-04-30 11:44 21.70872 114.07642 17825 ft 401 kts 174°
2026-04-30 11:44 21.68112 114.08166 18156 ft 404 kts 174°
2026-04-30 11:45 21.65326 114.08568 18475 ft 402 kts 181°
2026-04-30 11:45 21.62560 114.08342 18772 ft 397 kts 194°
2026-04-30 11:45 21.59860 114.07696 19087 ft 397 kts 198°
2026-04-30 11:45 21.57174 114.06980 19395 ft 398 kts 198°
2026-04-30 11:46 21.54478 114.06261 19705 ft 400 kts 198°
2026-04-30 11:46 21.51804 114.05555 19997 ft 402 kts 197°
2026-04-30 11:46 21.49081 114.04843 20287 ft 403 kts 197°
2026-04-30 11:46 21.46351 114.04132 20595 ft 405 kts 197°
2026-04-30 11:47 21.43580 114.03524 20882 ft 409 kts 192°
2026-04-30 11:47 21.40743 114.03158 21193 ft 412 kts 189°
2026-04-30 11:47 21.37881 114.02920 21470 ft 414 kts 187°
2026-04-30 11:47 21.34991 114.02748 21753 ft 416 kts 186°
2026-04-30 11:48 21.32094 114.02601 22030 ft 418 kts 186°
2026-04-30 11:48 21.29187 114.02451 22317 ft 419 kts 186°
2026-04-30 11:48 21.26265 114.02287 22587 ft 421 kts 187°
2026-04-30 11:48 21.23335 114.02109 22848 ft 422 kts 187°
2026-04-30 11:49 21.20397 114.01921 23122 ft 424 kts 187°
2026-04-30 11:49 21.18445 114.01792 23304 ft 425 kts 187°
2026-04-30 11:49 21.15481 114.01594 23562 ft 426 kts 187°
2026-04-30 11:49 21.11516 114.01326 23853 ft 428 kts 187°
2026-04-30 11:50 21.09539 114.01193 23999 ft 429 kts 187°
2026-04-30 11:50 21.06556 114.00993 24231 ft 430 kts 187°
2026-04-30 11:50 21.03563 114.00792 24427 ft 432 kts 187°
2026-04-30 11:50 21.00555 114.00591 24648 ft 433 kts 187°
2026-04-30 11:51 20.97536 114.00390 24868 ft 434 kts 187°
2026-04-30 11:51 20.93551 113.99976 25142 ft 433 kts 192°
2026-04-30 11:51 20.91542 113.99596 25282 ft 434 kts 194°
2026-04-30 11:51 20.88614 113.98979 25501 ft 435 kts 195°
2026-04-30 11:52 20.85654 113.98305 25728 ft 436 kts 195°
2026-04-30 11:52 20.82690 113.97605 25955 ft 437 kts 195°
2026-04-30 11:52 20.79717 113.96895 26181 ft 438 kts 195°
2026-04-30 11:52 20.76731 113.96184 26412 ft 439 kts 195°
2026-04-30 11:53 20.73738 113.95476 26640 ft 440 kts 195°
2026-04-30 11:53 20.70735 113.94771 26868 ft 442 kts 195°
2026-04-30 11:53 20.67714 113.94066 27078 ft 444 kts 195°
2026-04-30 11:53 20.64690 113.93363 27301 ft 446 kts 195°
2026-04-30 11:54 20.61690 113.92666 27534 ft 447 kts 195°
2026-04-30 11:54 20.58602 113.91950 27762 ft 449 kts 195°
2026-04-30 11:54 20.55588 113.91251 27985 ft 451 kts 195°
2026-04-30 11:54 20.52512 113.90537 28219 ft 452 kts 195°
2026-04-30 11:55 20.49426 113.89822 28449 ft 454 kts 195°
2026-04-30 11:55 20.46329 113.89103 28684 ft 456 kts 195°
2026-04-30 11:55 20.43220 113.88383 28904 ft 458 kts 196°
2026-04-30 11:55 20.40097 113.87659 29135 ft 460 kts 196°
2026-04-30 11:56 20.36968 113.86934 29353 ft 462 kts 196°
2026-04-30 11:56 20.33822 113.86205 29598 ft 464 kts 196°
2026-04-30 11:56 20.30664 113.85474 29818 ft 466 kts 196°
2026-04-30 11:56 20.27488 113.84739 30053 ft 468 kts 196°
2026-04-30 11:57 20.24296 113.84002 30260 ft 470 kts 196°
2026-04-30 11:57 20.21096 113.83262 30465 ft 472 kts 196°
2026-04-30 11:57 20.17880 113.82520 30679 ft 474 kts 196°
2026-04-30 11:57 20.14649 113.81774 30897 ft 475 kts 196°
2026-04-30 11:58 20.11444 113.81034 31110 ft 477 kts 195°
2026-04-30 11:58 20.08193 113.80284 31337 ft 479 kts 195°
2026-04-30 11:58 20.04926 113.79531 31523 ft 481 kts 195°
2026-04-30 11:58 20.01652 113.78776 31740 ft 483 kts 195°
2026-04-30 11:59 19.98365 113.78018 31955 ft 484 kts 195°
2026-04-30 11:59 19.95061 113.77258 32162 ft 485 kts 195°
2026-04-30 11:59 19.91758 113.76497 32359 ft 487 kts 195°
2026-04-30 11:59 19.88437 113.75733 32567 ft 488 kts 195°
2026-04-30 12:00 19.85108 113.74968 32769 ft 490 kts 195°
2026-04-30 12:00 19.81769 113.74200 32970 ft 491 kts 195°
2026-04-30 12:00 19.78424 113.73432 33149 ft 492 kts 195°
2026-04-30 12:00 19.75069 113.72661 33356 ft 493 kts 195°
2026-04-30 12:01 19.71715 113.71891 33555 ft 494 kts 195°
2026-04-30 12:01 19.68356 113.71120 33861 ft 493 kts 195°
2026-04-30 12:01 19.65009 113.70353 34167 ft 492 kts 195°
2026-04-30 12:01 19.61668 113.69587 34462 ft 490 kts 195°
2026-04-30 12:02 19.58333 113.68823 34756 ft 489 kts 195°
2026-04-30 12:02 19.55059 113.68073 35066 ft 487 kts 195°
2026-04-30 12:02 19.51705 113.67305 35382 ft 486 kts 195°
2026-04-30 12:02 19.48453 113.66561 35695 ft 484 kts 195°
2026-04-30 12:03 19.45157 113.65806 35996 ft 483 kts 195°
2026-04-30 12:03 19.38595 113.64305 36599 ft 482 kts 195°
2026-04-30 12:03 19.35322 113.63557 36898 ft 481 kts 195°
2026-04-30 12:04 19.32056 113.62811 37211 ft 480 kts 195°
2026-04-30 12:04 19.28796 113.62066 37514 ft 479 kts 195°
2026-04-30 12:04 19.25538 113.61323 37817 ft 478 kts 195°
2026-04-30 12:04 19.22289 113.60582 38139 ft 477 kts 196°
2026-04-30 12:05 19.19049 113.59842 38444 ft 476 kts 196°
2026-04-30 12:05 19.15813 113.59105 38720 ft 475 kts 196°
2026-04-30 12:05 19.12582 113.58368 38942 ft 475 kts 196°
2026-04-30 12:05 19.09355 113.57633 39175 ft 474 kts 196°
2026-04-30 12:06 19.06174 113.56908 39378 ft 474 kts 196°
2026-04-30 12:06 19.02946 113.56173 39578 ft 474 kts 196°
2026-04-30 12:06 18.99714 113.55455 39781 ft 474 kts 195°
2026-04-30 12:06 18.96455 113.54858 39957 ft 476 kts 193°
2026-04-30 12:07 18.93179 113.54356 40003 ft 477 kts 192°
2026-04-30 12:07 18.86593 113.53463 40000 ft 476 kts 191°
2026-04-30 12:08 18.80023 113.52574 40002 ft 476 kts 192°
2026-04-30 12:08 18.73496 113.51659 40001 ft 476 kts 192°
2026-04-30 12:09 18.66921 113.50721 40002 ft 477 kts 192°
2026-04-30 12:09 18.60351 113.49742 39999 ft 476 kts 194°
2026-04-30 12:10 18.54130 113.47613 40001 ft 467 kts 210°
2026-04-30 12:10 18.48684 113.43955 39999 ft 464 kts 218°
2026-04-30 12:11 18.43474 113.39936 39997 ft 463 kts 219°
2026-04-30 12:11 18.38335 113.35906 39996 ft 463 kts 219°
2026-04-30 12:12 18.33147 113.31877 39992 ft 464 kts 219°
2026-04-30 12:12 18.27932 113.27858 39990 ft 464 kts 219°
2026-04-30 12:13 18.22715 113.23848 39993 ft 464 kts 219°
2026-04-30 12:13 18.17501 113.19844 39993 ft 464 kts 219°
2026-04-30 12:14 18.12277 113.15833 39991 ft 464 kts 219°
2026-04-30 12:14 18.07087 113.11850 39992 ft 464 kts 219°
2026-04-30 12:15 18.01865 113.07846 39992 ft 465 kts 219°
2026-04-30 12:15 17.96633 113.03839 39993 ft 465 kts 219°
2026-04-30 12:16 17.91404 112.99836 39991 ft 465 kts 219°
2026-04-30 12:16 17.86171 112.95833 39986 ft 465 kts 219°
2026-04-30 12:17 17.78420 112.89768 39985 ft 465 kts 219°
2026-04-30 12:17 17.73245 112.85682 39988 ft 465 kts 219°
2026-04-30 12:18 17.68070 112.81608 39990 ft 465 kts 219°
2026-04-30 12:18 17.62879 112.77531 39987 ft 466 kts 219°
2026-04-30 12:19 17.57693 112.73464 39984 ft 466 kts 219°
2026-04-30 12:19 17.52533 112.69421 39985 ft 466 kts 219°
2026-04-30 12:20 17.47338 112.65352 39984 ft 466 kts 219°
2026-04-30 12:20 17.42143 112.61286 39978 ft 465 kts 219°
2026-04-30 12:21 17.36953 112.57225 39992 ft 466 kts 219°
2026-04-30 12:21 17.31760 112.53167 39988 ft 466 kts 219°
2026-04-30 12:22 17.26568 112.49112 39974 ft 466 kts 219°
2026-04-30 12:22 17.21364 112.45052 39972 ft 467 kts 219°
2026-04-30 12:23 17.16157 112.40992 39967 ft 467 kts 219°
2026-04-30 12:23 17.10982 112.36959 39978 ft 467 kts 219°
2026-04-30 12:24 17.05771 112.32900 39983 ft 467 kts 219°
2026-04-30 12:24 17.00545 112.28833 39973 ft 467 kts 219°
2026-04-30 12:25 16.95336 112.24843 39978 ft 467 kts 218°
2026-04-30 12:25 16.90075 112.20862 39980 ft 467 kts 218°
2026-04-30 12:26 16.84809 112.16881 39974 ft 467 kts 218°
2026-04-30 12:26 16.79546 112.12899 39973 ft 467 kts 218°
2026-04-30 12:27 16.74286 112.08916 39974 ft 467 kts 218°
2026-04-30 12:27 16.69085 112.04982 39973 ft 467 kts 218°
2026-04-30 12:28 16.63820 112.01001 39974 ft 467 kts 218°
2026-04-30 12:28 16.58630 111.97082 39968 ft 468 kts 218°
2026-04-30 12:29 16.53309 111.93065 39971 ft 468 kts 218°
2026-04-30 12:29 16.48037 111.89088 39975 ft 468 kts 218°
2026-04-30 12:30 16.42763 111.85112 39971 ft 468 kts 218°
2026-04-30 12:30 16.37485 111.81135 39975 ft 468 kts 218°
2026-04-30 12:31 16.32199 111.77157 39970 ft 468 kts 218°
2026-04-30 12:31 16.26912 111.73180 39966 ft 468 kts 218°
2026-04-30 12:32 16.21626 111.69207 39965 ft 468 kts 218°
2026-04-30 12:32 16.16341 111.65236 39969 ft 469 kts 218°
2026-04-30 12:33 16.11050 111.61263 39963 ft 469 kts 218°
2026-04-30 12:33 16.05797 111.57322 39966 ft 469 kts 218°
2026-04-30 12:34 16.00498 111.53349 39967 ft 469 kts 218°
2026-04-30 12:34 15.95196 111.49377 39964 ft 469 kts 218°
2026-04-30 12:35 15.89892 111.45406 39960 ft 469 kts 218°
2026-04-30 12:35 15.84623 111.41463 39963 ft 470 kts 218°
2026-04-30 12:36 15.79315 111.37494 39964 ft 470 kts 218°
2026-04-30 12:36 15.74003 111.33524 39961 ft 470 kts 218°
2026-04-30 12:37 15.68695 111.29559 39961 ft 470 kts 218°
2026-04-30 12:37 15.63372 111.25586 39962 ft 471 kts 218°
2026-04-30 12:38 15.58945 111.22284 39961 ft 471 kts 218°
2026-04-30 12:38 15.53620 111.18315 39965 ft 471 kts 218°
2026-04-30 12:39 15.48292 111.14347 39961 ft 472 kts 218°
2026-04-30 12:39 15.42085 111.09726 39959 ft 472 kts 218°
2026-04-30 12:40 15.37619 111.06405 39960 ft 472 kts 218°
2026-04-30 12:40 15.32326 111.02433 39960 ft 472 kts 218°
2026-04-30 12:41 15.27030 110.98401 39956 ft 472 kts 218°
2026-04-30 12:41 15.21739 110.94369 39960 ft 472 kts 218°
2026-04-30 12:42 15.16464 110.90358 39960 ft 472 kts 218°
2026-04-30 12:42 15.10269 110.85658 40091 ft 473 kts 218°
2026-04-30 12:43 15.08510 110.84324 40244 ft 472 kts 218°
2026-04-30 12:43 15.05867 110.82321 40509 ft 470 kts 218°
2026-04-30 12:43 15.03230 110.80324 40766 ft 469 kts 218°
2026-04-30 12:43 15.00601 110.78335 40948 ft 469 kts 218°
2026-04-30 12:44 14.95341 110.74352 40959 ft 467 kts 218°
2026-04-30 12:44 14.90098 110.70383 40956 ft 467 kts 218°
2026-04-30 12:45 14.84849 110.66413 40956 ft 468 kts 218°
2026-04-30 12:45 14.79596 110.62441 40961 ft 468 kts 218°
2026-04-30 12:46 14.74337 110.58468 40955 ft 468 kts 218°
2026-04-30 12:46 14.69109 110.54521 40954 ft 468 kts 218°
2026-04-30 12:47 14.63851 110.50554 40956 ft 468 kts 218°
2026-04-30 12:47 14.58591 110.46588 40955 ft 468 kts 218°
2026-04-30 12:48 14.53332 110.42625 40956 ft 468 kts 218°
2026-04-30 12:48 14.48069 110.38661 40958 ft 468 kts 217°
2026-04-30 12:49 14.42802 110.34696 40953 ft 468 kts 217°
2026-04-30 12:49 14.37575 110.30765 40955 ft 468 kts 217°
2026-04-30 12:50 14.32307 110.26805 40956 ft 468 kts 217°
2026-04-30 12:50 14.27044 110.22852 40957 ft 468 kts 217°
2026-04-30 12:51 14.21771 110.18893 40953 ft 468 kts 217°
2026-04-30 12:51 14.16497 110.14936 40952 ft 468 kts 217°
2026-04-30 12:52 14.11268 110.11014 40956 ft 468 kts 217°
2026-04-30 12:52 14.05989 110.07058 40953 ft 468 kts 217°
2026-04-30 12:53 14.00725 110.03114 40953 ft 468 kts 217°
2026-04-30 12:53 13.95418 109.99195 40949 ft 469 kts 216°
2026-04-30 12:54 13.89946 109.95535 40950 ft 469 kts 214°
2026-04-30 12:54 13.84395 109.91991 40957 ft 469 kts 214°
2026-04-30 12:55 13.78875 109.88475 40958 ft 470 kts 214°
2026-04-30 12:55 13.73330 109.84923 40955 ft 470 kts 214°
2026-04-30 12:56 13.67781 109.81359 40954 ft 469 kts 214°
2026-04-30 12:56 13.62238 109.77798 40954 ft 470 kts 214°
2026-04-30 12:57 13.56692 109.74237 40952 ft 470 kts 214°
2026-04-30 12:57 13.51139 109.70676 40953 ft 470 kts 214°
2026-04-30 12:58 13.45592 109.67120 40953 ft 470 kts 214°
2026-04-30 12:58 13.40035 109.63560 40955 ft 470 kts 214°
2026-04-30 12:59 13.34520 109.60029 40954 ft 470 kts 214°
2026-04-30 12:59 13.28959 109.56470 40950 ft 470 kts 214°
2026-04-30 13:00 13.23397 109.52913 40955 ft 471 kts 214°
2026-04-30 13:00 13.17834 109.49356 40958 ft 471 kts 214°
2026-04-30 13:01 13.12262 109.45796 40957 ft 471 kts 214°
2026-04-30 13:01 13.06694 109.42240 40957 ft 472 kts 214°
2026-04-30 13:02 13.01115 109.38680 40951 ft 472 kts 214°
2026-04-30 13:02 12.95576 109.35146 40957 ft 472 kts 214°
2026-04-30 13:03 12.90006 109.31594 40962 ft 472 kts 214°
2026-04-30 13:03 12.84432 109.28043 40956 ft 472 kts 214°
2026-04-30 13:04 12.78849 109.24488 40951 ft 472 kts 214°
2026-04-30 13:04 12.73268 109.20936 40955 ft 472 kts 214°
2026-04-30 13:05 12.67681 109.17381 40957 ft 472 kts 214°
2026-04-30 13:06 12.59313 109.12064 40954 ft 472 kts 214°
2026-04-30 13:06 12.53727 109.08517 40956 ft 473 kts 214°
2026-04-30 13:07 12.48163 109.04987 40956 ft 473 kts 214°
2026-04-30 13:07 12.42556 109.01432 40957 ft 473 kts 214°
2026-04-30 13:08 12.36953 108.97880 40958 ft 473 kts 214°
2026-04-30 13:08 12.31352 108.94332 40964 ft 473 kts 214°
2026-04-30 13:09 12.25786 108.90808 40965 ft 473 kts 214°
2026-04-30 13:09 12.20184 108.87263 40970 ft 473 kts 214°
2026-04-30 13:10 12.14570 108.83712 40974 ft 474 kts 214°
2026-04-30 13:10 12.08961 108.80166 40977 ft 474 kts 214°
2026-04-30 13:11 12.03386 108.76644 40977 ft 474 kts 214°
2026-04-30 13:11 11.97768 108.73096 40978 ft 474 kts 214°
2026-04-30 13:12 11.92144 108.69547 40974 ft 474 kts 214°
2026-04-30 13:12 11.86555 108.66021 40966 ft 474 kts 214°
2026-04-30 13:13 11.78114 108.60698 40965 ft 475 kts 214°
2026-04-30 13:14 11.69701 108.55397 40957 ft 475 kts 214°
2026-04-30 13:14 11.61262 108.50085 40944 ft 475 kts 213°
2026-04-30 13:15 11.52814 108.44772 40937 ft 475 kts 213°
2026-04-30 13:16 11.47191 108.41237 40930 ft 475 kts 213°
2026-04-30 13:16 11.41562 108.37701 40922 ft 475 kts 213°
2026-04-30 13:17 11.33142 108.32413 40917 ft 475 kts 213°
2026-04-30 13:18 11.24692 108.27109 40908 ft 476 kts 213°
2026-04-30 13:18 11.16241 108.21810 40905 ft 476 kts 213°
2026-04-30 13:19 11.10595 108.18272 40901 ft 476 kts 213°
2026-04-30 13:19 11.04960 108.14741 40895 ft 476 kts 213°
2026-04-30 13:20 10.99306 108.11201 40892 ft 476 kts 213°
2026-04-30 13:20 10.93660 108.07667 40909 ft 476 kts 213°
2026-04-30 13:21 10.88099 108.04082 40892 ft 475 kts 214°
2026-04-30 13:22 10.79782 107.98562 40893 ft 474 kts 214°
2026-04-30 13:22 10.71526 107.93071 40903 ft 474 kts 214°
2026-04-30 13:23 10.63245 107.87575 40892 ft 474 kts 214°
2026-04-30 13:24 10.52186 107.80275 40903 ft 473 kts 214°
2026-04-30 13:25 10.41139 107.72992 40902 ft 473 kts 214°
2026-04-30 13:26 10.27376 107.63923 40906 ft 472 kts 214°
2026-04-30 13:28 10.14510 107.55459 40889 ft 473 kts 214°
2026-04-30 13:28 10.06223 107.49994 40902 ft 474 kts 214°
2026-04-30 13:29 9.95165 107.42700 40909 ft 474 kts 214°
2026-04-30 13:31 9.81334 107.33589 40910 ft 474 kts 214°
2026-04-30 13:32 9.67507 107.24491 40904 ft 475 kts 213°
2026-04-30 13:33 9.56414 107.17200 40909 ft 475 kts 213°
2026-04-30 13:34 9.48078 107.11721 40906 ft 475 kts 213°
2026-04-30 13:35 9.37003 107.04449 40908 ft 476 kts 213°
2026-04-30 13:36 9.25879 106.97152 40906 ft 476 kts 213°
2026-04-30 13:36 9.17538 106.91682 40905 ft 476 kts 213°
2026-04-30 13:37 9.09206 106.86220 40906 ft 476 kts 213°
2026-04-30 13:38 9.00887 106.80771 40904 ft 476 kts 213°
2026-04-30 13:39 8.89752 106.73485 40907 ft 477 kts 213°
2026-04-30 13:40 8.81401 106.68024 40909 ft 476 kts 213°
2026-04-30 13:40 8.75833 106.64384 40910 ft 476 kts 213°
2026-04-30 13:41 8.70241 106.60787 40908 ft 476 kts 212°
2026-04-30 13:41 8.64624 106.57302 40911 ft 476 kts 212°
2026-04-30 13:42 8.58959 106.53807 40910 ft 477 kts 212°
2026-04-30 13:42 8.50469 106.48549 40911 ft 477 kts 212°
2026-04-30 13:43 8.44815 106.45042 40907 ft 477 kts 212°
2026-04-30 13:43 8.39186 106.41549 40908 ft 477 kts 212°
2026-04-30 13:44 8.33525 106.38037 40910 ft 477 kts 212°
2026-04-30 13:44 8.27868 106.34530 40912 ft 477 kts 212°
2026-04-30 13:45 8.19379 106.29270 40910 ft 477 kts 212°
2026-04-30 13:46 8.13719 106.25765 40911 ft 477 kts 212°
2026-04-30 13:46 8.08059 106.22262 40909 ft 477 kts 212°
2026-04-30 13:47 8.02405 106.18763 40911 ft 477 kts 212°
2026-04-30 13:47 7.96810 106.15301 40913 ft 477 kts 212°
2026-04-30 13:48 7.91155 106.11802 40911 ft 477 kts 211°
2026-04-30 13:48 7.85490 106.08298 40914 ft 477 kts 211°
2026-04-30 13:49 7.79823 106.04795 40912 ft 478 kts 211°
2026-04-30 13:49 7.74151 106.01293 40915 ft 478 kts 211°
2026-04-30 13:50 7.68470 105.97784 40915 ft 478 kts 211°
2026-04-30 13:50 7.59962 105.92532 40913 ft 478 kts 211°
2026-04-30 13:51 7.54323 105.89051 40910 ft 478 kts 211°
2026-04-30 13:51 7.48649 105.85550 40911 ft 478 kts 211°
2026-04-30 13:52 7.42976 105.82050 40913 ft 478 kts 211°
2026-04-30 13:52 7.37291 105.78545 40912 ft 478 kts 211°
2026-04-30 13:53 7.31613 105.75044 40908 ft 478 kts 211°
2026-04-30 13:53 7.25932 105.71543 40914 ft 478 kts 211°
2026-04-30 13:54 7.20289 105.68066 40909 ft 478 kts 211°
2026-04-30 13:54 7.14605 105.64565 40910 ft 479 kts 211°
2026-04-30 13:55 7.08922 105.61065 40911 ft 479 kts 211°
2026-04-30 13:55 7.03234 105.57564 40910 ft 479 kts 211°
2026-04-30 13:56 6.97495 105.54158 40909 ft 479 kts 208°
2026-04-30 13:56 6.91575 105.51066 40908 ft 479 kts 206°
2026-04-30 13:57 6.85605 105.48073 40913 ft 479 kts 206°
2026-04-30 13:57 6.79686 105.45096 40911 ft 479 kts 206°
2026-04-30 13:58 6.70752 105.40562 40908 ft 479 kts 206°
2026-04-30 13:59 6.64803 105.37535 40908 ft 479 kts 206°
2026-04-30 13:59 6.58837 105.34502 40909 ft 479 kts 206°
2026-04-30 14:00 6.52884 105.31475 40907 ft 480 kts 206°
2026-04-30 14:00 6.43980 105.26956 40911 ft 479 kts 206°
2026-04-30 14:01 6.38003 105.23943 40909 ft 480 kts 205°
2026-04-30 14:01 6.32017 105.20957 40909 ft 480 kts 205°
2026-04-30 14:02 6.26040 105.17960 40910 ft 480 kts 205°
2026-04-30 14:02 6.20064 105.14938 40914 ft 481 kts 205°
2026-04-30 14:03 6.14093 105.11908 40919 ft 481 kts 205°
2026-04-30 14:03 6.08117 105.08870 40913 ft 481 kts 206°
2026-04-30 14:04 6.02170 105.05840 40912 ft 482 kts 205°
2026-04-30 14:04 5.96179 105.02810 40913 ft 482 kts 205°
2026-04-30 14:05 5.90172 104.99775 40913 ft 483 kts 205°
2026-04-30 14:05 5.84172 104.96737 40912 ft 483 kts 205°
2026-04-30 14:06 5.75146 104.92166 40916 ft 484 kts 205°
2026-04-30 14:07 5.66155 104.87613 40910 ft 484 kts 205°
2026-04-30 14:08 5.57113 104.83036 40915 ft 485 kts 205°
2026-04-30 14:08 5.48077 104.78465 40919 ft 485 kts 205°
2026-04-30 14:09 5.42041 104.75411 40921 ft 485 kts 205°
2026-04-30 14:10 5.33025 104.70851 40920 ft 486 kts 205°
2026-04-30 14:10 5.26982 104.67796 40917 ft 486 kts 205°
2026-04-30 14:11 5.20946 104.64745 40919 ft 486 kts 205°
2026-04-30 14:11 5.14906 104.61693 40923 ft 486 kts 205°
2026-04-30 14:12 5.08857 104.58637 40920 ft 486 kts 205°
2026-04-30 14:12 5.02847 104.55601 40918 ft 486 kts 205°
2026-04-30 14:13 4.96770 104.52532 40922 ft 486 kts 205°
2026-04-30 14:13 4.90696 104.49626 40920 ft 485 kts 199°
2026-04-30 14:14 4.84143 104.48164 40920 ft 482 kts 182°
2026-04-30 14:14 4.77489 104.48617 40921 ft 480 kts 172°
2026-04-30 14:15 4.71988 104.49332 40922 ft 480 kts 172°
2026-04-30 14:15 4.65366 104.50183 40921 ft 480 kts 172°
2026-04-30 14:16 4.57627 104.51163 40920 ft 479 kts 172°
2026-04-30 14:16 4.52075 104.51310 40923 ft 481 kts 184°
2026-04-30 14:17 4.45459 104.50197 40923 ft 482 kts 189°
2026-04-30 14:17 4.38925 104.48868 40917 ft 482 kts 189°
2026-04-30 14:18 4.32355 104.47527 40924 ft 482 kts 189°
2026-04-30 14:18 4.22506 104.45517 40924 ft 481 kts 189°
2026-04-30 14:19 4.12668 104.43511 40919 ft 480 kts 189°
2026-04-30 14:20 4.08387 104.42639 40924 ft 480 kts 189°
2026-04-30 14:20 3.99281 104.40783 40927 ft 480 kts 189°
2026-04-30 14:21 3.92768 104.39455 40927 ft 480 kts 189°
2026-04-30 14:22 3.82964 104.37457 40673 ft 479 kts 189°
2026-04-30 14:22 3.76405 104.36121 40186 ft 482 kts 189°
2026-04-30 14:22 3.73119 104.35452 39951 ft 483 kts 189°
2026-04-30 14:23 3.66543 104.34112 39481 ft 486 kts 189°
2026-04-30 14:23 3.59907 104.32760 39019 ft 488 kts 189°
2026-04-30 14:24 3.53223 104.31398 38567 ft 491 kts 189°
2026-04-30 14:24 3.49872 104.30716 38304 ft 492 kts 189°
2026-04-30 14:25 3.43136 104.29346 37731 ft 494 kts 189°
2026-04-30 14:25 3.36433 104.27981 36457 ft 492 kts 190°
2026-04-30 14:26 3.29705 104.26612 35022 ft 495 kts 190°
2026-04-30 14:26 3.26315 104.25922 34190 ft 499 kts 190°
2026-04-30 14:26 3.19455 104.24516 32368 ft 506 kts 191°
2026-04-30 14:27 3.15996 104.23803 31448 ft 509 kts 191°
2026-04-30 14:27 3.12517 104.23090 30658 ft 509 kts 191°
2026-04-30 14:27 3.09057 104.22383 29989 ft 506 kts 190°
2026-04-30 14:28 3.02200 104.20984 28568 ft 498 kts 190°
2026-04-30 14:28 2.98820 104.20296 27911 ft 494 kts 190°
2026-04-30 14:28 2.95504 104.19621 27254 ft 490 kts 190°
2026-04-30 14:28 2.92176 104.18943 26595 ft 486 kts 189°
2026-04-30 14:29 2.85586 104.17603 25299 ft 479 kts 189°
2026-04-30 14:29 2.79094 104.16282 24010 ft 473 kts 189°
2026-04-30 14:30 2.69615 104.14354 22740 ft 443 kts 189°
2026-04-30 14:31 2.63779 104.13167 22455 ft 413 kts 189°
2026-04-30 14:31 2.58312 104.12056 22107 ft 389 kts 188°
2026-04-30 14:31 2.55693 104.11524 21936 ft 378 kts 188°
2026-04-30 14:32 2.50646 104.10572 21228 ft 367 kts 183°
2026-04-30 14:32 2.48112 104.10457 20833 ft 362 kts 178°
2026-04-30 14:32 2.45607 104.10448 20441 ft 359 kts 177°
2026-04-30 14:33 2.43120 104.10455 20107 ft 354 kts 177°
2026-04-30 14:33 2.38253 104.10463 19545 ft 347 kts 177°
2026-04-30 14:33 2.35845 104.10465 19279 ft 346 kts 177°
2026-04-30 14:34 2.33469 104.10466 19017 ft 345 kts 177°
2026-04-30 14:34 2.31073 104.10467 18761 ft 343 kts 177°
2026-04-30 14:34 2.28691 104.10467 18488 ft 341 kts 177°
2026-04-30 14:34 2.26323 104.10467 18228 ft 340 kts 178°
2026-04-30 14:35 2.21598 104.10467 17682 ft 337 kts 178°
2026-04-30 14:35 2.19257 104.10467 17424 ft 336 kts 177°
2026-04-30 14:35 2.16915 104.10467 17168 ft 335 kts 178°
2026-04-30 14:36 2.14591 104.10467 16907 ft 334 kts 178°
2026-04-30 14:36 2.12272 104.10467 16664 ft 332 kts 178°
2026-04-30 14:36 2.09965 104.10467 16403 ft 331 kts 178°
2026-04-30 14:36 2.07668 104.10467 16178 ft 327 kts 178°
2026-04-30 14:37 2.05422 104.10466 16019 ft 317 kts 177°
2026-04-30 14:37 2.03246 104.10465 15850 ft 308 kts 177°
2026-04-30 14:37 2.01131 104.10465 15678 ft 300 kts 177°
2026-04-30 14:37 1.99068 104.10466 15428 ft 295 kts 177°
2026-04-30 14:38 1.97024 104.10474 15114 ft 293 kts 177°
2026-04-30 14:38 1.95012 104.10484 14783 ft 292 kts 177°
2026-04-30 14:38 1.92989 104.10494 14505 ft 289 kts 177°
2026-04-30 14:38 1.90994 104.10503 14276 ft 284 kts 177°
2026-04-30 14:39 1.89023 104.10512 14060 ft 282 kts 177°
2026-04-30 14:39 1.87058 104.10522 13842 ft 282 kts 177°
2026-04-30 14:39 1.85760 104.10528 13707 ft 281 kts 177°
2026-04-30 14:40 1.81195 104.10548 13174 ft 279 kts 177°
2026-04-30 14:40 1.79253 104.10557 12962 ft 278 kts 177°
2026-04-30 14:40 1.77321 104.10566 12746 ft 278 kts 177°
2026-04-30 14:40 1.75394 104.10575 12525 ft 277 kts 177°
2026-04-30 14:41 1.73474 104.10584 12391 ft 276 kts 177°
2026-04-30 14:41 1.71552 104.10592 12183 ft 275 kts 177°
2026-04-30 14:41 1.69641 104.10600 11988 ft 274 kts 177°
2026-04-30 14:41 1.67737 104.10609 11768 ft 274 kts 177°
2026-04-30 14:42 1.65831 104.10617 11558 ft 273 kts 177°
2026-04-30 14:42 1.63955 104.10625 11350 ft 272 kts 177°
2026-04-30 14:42 1.62071 104.10648 11131 ft 271 kts 175°
2026-04-30 14:42 1.60202 104.10830 10911 ft 269 kts 169°
2026-04-30 14:43 1.58357 104.11093 10705 ft 267 kts 169°
2026-04-30 14:43 1.56513 104.11368 10499 ft 266 kts 169°
2026-04-30 14:43 1.54679 104.11642 10296 ft 266 kts 169°